Time,TemperatureF,DewpointF,PressureIn,WindDirection,WindDirectionDegrees,WindSpeedMPH,WindSpeedGustMPH,Humidity,HourlyPrecipIn,Conditions,Clouds,dailyrainin,SoftwareType,DateUTC
2013-01-18 00:01:00,35.5,30.3,30.08,NW,325,0.0,1.0,81,0.00,,---,0.00,VWS V14.00,2013-01-18 05:01:00,
2013-01-18 00:02:00,35.4,30.2,30.08,NW,325,0.0,1.0,81,0.00,,---,0.00,VWS V14.00,2013-01-18 05:02:00,
2013-01-18 00:03:00,35.4,30.2,30.08,WNW,302,4.0,5.0,81,0.00,,---,0.00,VWS V14.00,2013-01-18 05:03:00,
2013-01-18 00:08:00,35.6,29.7,30.08,NNE,26,0.0,9.0,79,0.00,,---,0.00,VWS V14.00,2013-01-18 05:08:00,
2013-01-18 00:13:00,35.3,30.1,30.08,NE,40,1.0,9.0,81,0.00,,---,0.00,VWS V14.00,2013-01-18 05:13:00,
2013-01-18 00:18:00,35.5,29.6,30.08,NNW,339,0.0,9.0,79,0.00,,---,0.00,VWS V14.00,2013-01-18 05:18:00,
2013-01-18 00:23:00,35.8,29.6,30.07,NNE,13,2.0,9.0,78,0.00,,---,0.00,VWS V14.00,2013-01-18 05:23:00,
2013-01-18 00:28:00,36.1,29.0,30.08,North,355,6.0,10.0,75,0.00,,---,0.00,VWS V14.00,2013-01-18 05:28:00,
2013-01-18 00:33:00,36.4,28.6,30.08,NE,45,3.0,10.0,73,0.00,,---,0.00,VWS V14.00,2013-01-18 05:33:00,
2013-01-18 00:38:00,36.6,28.4,30.08,North,5,7.0,10.0,72,0.00,,---,0.00,VWS V14.00,2013-01-18 05:38:00,
2013-01-18 00:43:00,36.8,28.0,30.08,NNE,19,2.0,10.0,70,0.00,,---,0.00,VWS V14.00,2013-01-18 05:43:00,
2013-01-18 00:48:00,36.9,27.3,30.08,North,5,3.0,10.0,68,0.00,,---,0.00,VWS V14.00,2013-01-18 05:48:00,
2013-01-18 00:53:00,37.0,27.1,30.09,North,360,4.0,13.0,67,0.00,,---,0.00,VWS V14.00,2013-01-18 05:53:00,
2013-01-18 00:58:00,37.0,27.1,30.09,NNE,19,4.0,5.0,67,0.00,,---,0.00,VWS V14.00,2013-01-18 05:58:00,
2013-01-18 01:03:00,36.8,26.9,30.10,North,5,6.0,8.0,67,0.00,,---,0.00,VWS V14.00,2013-01-18 06:03:00,
2013-01-18 01:08:00,36.8,26.9,30.10,North,355,4.0,10.0,67,0.00,,---,0.00,VWS V14.00,2013-01-18 06:08:00,
2013-01-18 01:13:00,36.7,26.4,30.11,North,360,7.0,10.0,66,0.00,,---,0.00,VWS V14.00,2013-01-18 06:13:00,
2013-01-18 01:18:00,36.7,26.4,30.11,NNW,346,7.0,12.0,66,0.00,,---,0.00,VWS V14.00,2013-01-18 06:18:00,
2013-01-18 01:23:00,36.5,26.2,30.11,NNW,331,1.0,12.0,66,0.00,,---,0.00,VWS V14.00,2013-01-18 06:23:00,
2013-01-18 01:28:00,35.9,26.0,30.11,NNW,331,0.0,0.0,67,0.00,,---,0.00,VWS V14.00,2013-01-18 06:28:00,
2013-01-18 01:33:00,35.7,26.2,30.12,NNW,331,0.0,1.0,68,0.00,,---,0.00,VWS V14.00,2013-01-18 06:33:00,
2013-01-18 01:38:00,35.8,25.9,30.12,ENE,62,1.0,7.0,67,0.00,,---,0.00,VWS V14.00,2013-01-18 06:38:00,
2013-01-18 01:43:00,35.9,26.0,30.12,ENE,67,0.0,7.0,67,0.00,,---,0.00,VWS V14.00,2013-01-18 06:43:00,
2013-01-18 01:48:00,35.8,25.9,30.12,NNW,339,6.0,7.0,67,0.00,,---,0.00,VWS V14.00,2013-01-18 06:48:00,
2013-01-18 01:53:00,35.9,25.3,30.12,NW,314,6.0,11.0,65,0.00,,---,0.00,VWS V14.00,2013-01-18 06:53:00,
2013-01-18 01:58:00,36.1,25.1,30.12,WNW,290,4.0,5.0,64,0.00,,---,0.00,VWS V14.00,2013-01-18 06:58:00,
2013-01-18 02:03:00,36.1,25.1,30.13,WNW,299,0.0,5.0,64,0.00,,---,0.00,VWS V14.00,2013-01-18 07:03:00,
2013-01-18 02:08:00,35.1,24.9,30.13,NW,306,0.0,5.0,66,0.00,,---,0.00,VWS V14.00,2013-01-18 07:08:00,
2013-01-18 02:13:00,34.5,25.0,30.13,East,90,7.0,14.0,68,0.00,,---,0.00,VWS V14.00,2013-01-18 07:13:00,
2013-01-18 02:18:00,35.0,24.8,30.13,NW,313,8.0,15.0,66,0.00,,---,0.00,VWS V14.00,2013-01-18 07:18:00,
2013-01-18 02:23:00,35.3,24.7,30.13,WNW,296,9.0,17.0,65,0.00,,---,0.00,VWS V14.00,2013-01-18 07:23:00,
2013-01-18 02:28:00,35.5,24.5,30.13,WNW,293,12.0,17.0,64,0.00,,---,0.00,VWS V14.00,2013-01-18 07:28:00,
2013-01-18 02:33:00,35.7,24.4,30.13,NW,307,11.0,18.0,63,0.00,,---,0.00,VWS V14.00,2013-01-18 07:33:00,
2013-01-18 02:38:00,36.1,24.0,30.13,NW,306,4.0,18.0,61,0.00,,---,0.00,VWS V14.00,2013-01-18 07:38:00,
2013-01-18 02:43:00,36.2,23.3,30.14,NW,309,5.0,18.0,59,0.00,,---,0.00,VWS V14.00,2013-01-18 07:43:00,
2013-01-18 02:48:00,36.5,24.0,30.14,West,269,12.0,18.0,60,0.00,,---,0.00,VWS V14.00,2013-01-18 07:48:00,
2013-01-18 02:53:00,36.6,23.2,30.14,NNW,327,6.0,18.0,58,0.00,,---,0.00,VWS V14.00,2013-01-18 07:53:00,
2013-01-18 02:58:00,36.6,23.2,30.14,WSW,254,4.0,7.0,58,0.00,,---,0.00,VWS V14.00,2013-01-18 07:58:00,
2013-01-18 03:03:00,36.5,22.7,30.14,WNW,295,6.0,9.0,57,0.00,,---,0.00,VWS V14.00,2013-01-18 08:03:00,
2013-01-18 03:08:00,36.2,22.5,30.14,WNW,302,1.0,9.0,57,0.00,,---,0.00,VWS V14.00,2013-01-18 08:08:00,
2013-01-18 03:13:00,36.1,22.4,30.15,WNW,287,8.0,13.0,57,0.00,,---,0.00,VWS V14.00,2013-01-18 08:13:00,
2013-01-18 03:18:00,36.4,22.6,30.14,West,281,8.0,13.0,57,0.00,,---,0.00,VWS V14.00,2013-01-18 08:18:00,
2013-01-18 03:23:00,36.4,22.6,30.15,NW,304,5.0,13.0,57,0.00,,---,0.00,VWS V14.00,2013-01-18 08:23:00,
2013-01-18 03:28:00,35.8,22.9,30.15,WNW,294,6.0,8.0,59,0.00,,---,0.00,VWS V14.00,2013-01-18 08:28:00,
2013-01-18 03:33:00,35.7,22.8,30.15,NNW,345,5.0,14.0,59,0.00,,---,0.00,VWS V14.00,2013-01-18 08:33:00,
2013-01-18 03:38:00,35.6,22.7,30.15,WNW,293,13.0,15.0,59,0.00,,---,0.00,VWS V14.00,2013-01-18 08:38:00,
2013-01-18 03:43:00,35.7,22.4,30.15,NNW,337,10.0,15.0,58,0.00,,---,0.00,VWS V14.00,2013-01-18 08:43:00,
2013-01-18 03:48:00,35.8,22.5,30.15,NNW,342,8.0,15.0,58,0.00,,---,0.00,VWS V14.00,2013-01-18 08:48:00,
2013-01-18 03:53:00,35.8,22.1,30.15,NW,325,9.0,15.0,57,0.00,,---,0.00,VWS V14.00,2013-01-18 08:53:00,
2013-01-18 03:58:00,35.9,22.2,30.15,NNW,345,6.0,9.0,57,0.00,,---,0.00,VWS V14.00,2013-01-18 08:58:00,
2013-01-18 04:03:00,35.8,22.1,30.15,NNE,15,1.0,17.0,57,0.00,,---,0.00,VWS V14.00,2013-01-18 09:03:00,
2013-01-18 04:08:00,35.7,22.0,30.16,NW,324,9.0,17.0,57,0.00,,---,0.00,VWS V14.00,2013-01-18 09:08:00,
2013-01-18 04:13:00,35.6,21.9,30.15,North,5,6.0,17.0,57,0.00,,---,0.00,VWS V14.00,2013-01-18 09:13:00,
2013-01-18 04:18:00,35.6,21.5,30.15,WNW,302,12.0,22.0,56,0.00,,---,0.00,VWS V14.00,2013-01-18 09:18:00,
2013-01-18 04:23:00,35.7,22.0,30.15,NNW,345,6.0,22.0,57,0.00,,---,0.00,VWS V14.00,2013-01-18 09:23:00,
2013-01-18 04:28:00,35.7,21.6,30.15,North,360,4.0,9.0,56,0.00,,---,0.00,VWS V14.00,2013-01-18 09:28:00,
2013-01-18 04:33:00,35.7,21.6,30.15,North,355,4.0,14.0,56,0.00,,---,0.00,VWS V14.00,2013-01-18 09:33:00,
2013-01-18 04:38:00,35.6,21.5,30.16,NNE,13,6.0,14.0,56,0.00,,---,0.00,VWS V14.00,2013-01-18 09:38:00,
2013-01-18 04:43:00,35.6,21.0,30.16,NNW,327,6.0,18.0,55,0.00,,---,0.00,VWS V14.00,2013-01-18 09:43:00,
2013-01-18 04:48:00,35.6,21.5,30.16,NW,319,11.0,21.0,56,0.00,,---,0.00,VWS V14.00,2013-01-18 09:48:00,
2013-01-18 04:53:00,35.5,21.0,30.16,NNW,339,9.0,21.0,55,0.00,,---,0.00,VWS V14.00,2013-01-18 09:53:00,
2013-01-18 04:58:00,35.6,21.5,30.16,NNW,335,9.0,16.0,56,0.00,,---,0.00,VWS V14.00,2013-01-18 09:58:00,
2013-01-18 05:03:00,35.7,20.7,30.17,NW,312,8.0,16.0,54,0.00,,---,0.00,VWS V14.00,2013-01-18 10:03:00,
2013-01-18 05:08:00,35.7,21.1,30.17,NNW,338,10.0,16.0,55,0.00,,---,0.00,VWS V14.00,2013-01-18 10:08:00,
2013-01-18 05:13:00,35.7,21.1,30.17,North,351,5.0,16.0,55,0.00,,---,0.00,VWS V14.00,2013-01-18 10:13:00,
2013-01-18 05:18:00,35.3,21.2,30.17,NNW,338,2.0,16.0,56,0.00,,---,0.00,VWS V14.00,2013-01-18 10:18:00,
2013-01-18 05:23:00,34.8,20.7,30.18,NNW,327,7.0,16.0,56,0.00,,---,0.00,VWS V14.00,2013-01-18 10:23:00,
2013-01-18 05:28:00,34.7,21.0,30.18,NNW,328,13.0,13.0,57,0.00,,---,0.00,VWS V14.00,2013-01-18 10:28:00,
2013-01-18 05:33:00,34.5,21.3,30.18,NNW,340,6.0,13.0,58,0.00,,---,0.00,VWS V14.00,2013-01-18 10:33:00,
2013-01-18 05:38:00,33.9,20.7,30.19,North,355,4.0,13.0,58,0.00,,---,0.00,VWS V14.00,2013-01-18 10:38:00,
2013-01-18 05:43:00,33.6,20.8,30.19,North,360,0.0,13.0,59,0.00,,---,0.00,VWS V14.00,2013-01-18 10:43:00,
2013-01-18 05:48:00,33.5,21.1,30.19,North,5,2.0,13.0,60,0.00,,---,0.00,VWS V14.00,2013-01-18 10:48:00,
2013-01-18 05:53:00,33.1,21.1,30.19,North,9,4.0,13.0,61,0.00,,---,0.00,VWS V14.00,2013-01-18 10:53:00,
2013-01-18 05:58:00,33.0,20.6,30.20,North,355,5.0,11.0,60,0.00,,---,0.00,VWS V14.00,2013-01-18 10:58:00,
2013-01-18 06:03:00,33.3,20.1,30.21,NNW,343,8.0,12.0,58,0.00,,---,0.00,VWS V14.00,2013-01-18 11:03:00,
2013-01-18 06:08:00,33.4,20.2,30.21,NW,322,11.0,12.0,58,0.00,,---,0.00,VWS V14.00,2013-01-18 11:08:00,
2013-01-18 06:13:00,33.4,20.2,30.21,NNW,336,6.0,12.0,58,0.00,,---,0.00,VWS V14.00,2013-01-18 11:13:00,
2013-01-18 06:18:00,33.2,20.0,30.21,North,360,4.0,12.0,58,0.00,,---,0.00,VWS V14.00,2013-01-18 11:18:00,
2013-01-18 06:23:00,32.9,19.8,30.22,North,360,6.0,12.0,58,0.00,,---,0.00,VWS V14.00,2013-01-18 11:23:00,
2013-01-18 06:28:00,32.9,19.8,30.22,NNW,345,8.0,15.0,58,0.00,,---,0.00,VWS V14.00,2013-01-18 11:28:00,
2013-01-18 06:33:00,33.1,19.5,30.22,North,360,6.0,15.0,57,0.00,,---,0.00,VWS V14.00,2013-01-18 11:33:00,
2013-01-18 06:38:00,33.3,19.3,30.23,North,355,10.0,17.0,56,0.00,,---,0.00,VWS V14.00,2013-01-18 11:38:00,
2013-01-18 06:43:00,33.4,19.4,30.24,North,360,10.0,17.0,56,0.00,,---,0.00,VWS V14.00,2013-01-18 11:43:00,
2013-01-18 06:48:00,33.4,18.6,30.24,North,355,8.0,21.0,54,0.00,,---,0.00,VWS V14.00,2013-01-18 11:48:00,
2013-01-18 06:53:00,33.5,18.2,30.24,NNW,340,7.0,21.0,53,0.00,,---,0.00,VWS V14.00,2013-01-18 11:53:00,
2013-01-18 06:58:00,33.3,18.0,30.24,North,5,13.0,14.0,53,0.00,,---,0.00,VWS V14.00,2013-01-18 11:58:00,
2013-01-18 07:03:00,33.2,18.4,30.25,North,9,3.0,14.0,54,0.00,,---,0.00,VWS V14.00,2013-01-18 12:03:00,
2013-01-18 07:08:00,33.0,18.2,30.25,NNE,22,8.0,15.0,54,0.00,,---,0.00,VWS V14.00,2013-01-18 12:08:00,
2013-01-18 07:13:00,33.0,18.2,30.26,NE,36,10.0,15.0,54,0.00,,---,0.00,VWS V14.00,2013-01-18 12:13:00,
2013-01-18 07:18:00,33.0,18.2,30.26,NNE,22,5.0,15.0,54,0.00,,---,0.00,VWS V14.00,2013-01-18 12:18:00,
2013-01-18 07:23:00,32.8,18.0,30.27,NE,49,4.0,15.0,54,0.00,,---,0.00,VWS V14.00,2013-01-18 12:23:00,
2013-01-18 07:28:00,32.7,17.0,30.27,NE,42,4.0,13.0,52,0.00,,---,0.00,VWS V14.00,2013-01-18 12:28:00,
2013-01-18 07:33:00,32.6,16.5,30.28,North,355,10.0,17.0,51,0.00,,---,0.00,VWS V14.00,2013-01-18 12:33:00,
2013-01-18 07:38:00,32.7,16.1,30.29,NNE,30,8.0,17.0,50,0.00,,---,0.00,VWS V14.00,2013-01-18 12:38:00,
2013-01-18 07:43:00,32.6,16.0,30.29,NNE,13,7.0,17.0,50,0.00,,---,0.00,VWS V14.00,2013-01-18 12:43:00,
2013-01-18 07:48:00,32.5,15.9,30.29,NNE,30,9.0,17.0,50,0.00,,---,0.00,VWS V14.00,2013-01-18 12:48:00,
2013-01-18 07:53:00,32.5,15.5,30.29,NNE,28,7.0,17.0,49,0.00,,---,0.00,VWS V14.00,2013-01-18 12:53:00,
2013-01-18 07:58:00,32.4,15.9,30.30,ENE,58,7.0,12.0,50,0.00,,---,0.00,VWS V14.00,2013-01-18 12:58:00,
2013-01-18 08:03:00,32.3,15.3,30.30,NNE,14,10.0,20.0,49,0.00,,---,0.00,VWS V14.00,2013-01-18 13:03:00,
2013-01-18 08:08:00,32.4,15.4,30.30,North,360,8.0,20.0,49,0.00,,---,0.00,VWS V14.00,2013-01-18 13:08:00,
2013-01-18 08:13:00,32.4,14.9,30.31,North,5,8.0,20.0,48,0.00,,---,0.00,VWS V14.00,2013-01-18 13:13:00,
2013-01-18 08:18:00,32.5,15.0,30.31,North,5,8.0,20.0,48,0.00,,---,0.00,VWS V14.00,2013-01-18 13:18:00,
2013-01-18 08:23:00,32.6,14.6,30.32,North,5,12.0,20.0,47,0.00,,---,0.00,VWS V14.00,2013-01-18 13:23:00,
2013-01-18 08:28:00,32.8,15.8,30.32,North,360,11.0,13.0,49,0.00,,---,0.00,VWS V14.00,2013-01-18 13:28:00,
2013-01-18 08:33:00,32.8,15.3,30.33,North,9,13.0,16.0,48,0.00,,---,0.00,VWS V14.00,2013-01-18 13:33:00,
2013-01-18 08:38:00,32.9,15.4,30.33,North,11,11.0,16.0,48,0.00,,---,0.00,VWS V14.00,2013-01-18 13:38:00,
2013-01-18 08:43:00,33.0,15.5,30.34,NNW,336,10.0,18.0,48,0.00,,---,0.00,VWS V14.00,2013-01-18 13:43:00,
2013-01-18 08:48:00,33.0,15.5,30.34,North,355,13.0,18.0,48,0.00,,---,0.00,VWS V14.00,2013-01-18 13:48:00,
2013-01-18 08:53:00,33.0,15.5,30.34,North,10,2.0,18.0,48,0.00,,---,0.00,VWS V14.00,2013-01-18 13:53:00,
2013-01-18 08:58:00,33.1,15.6,30.35,North,360,7.0,13.0,48,0.00,,---,0.00,VWS V14.00,2013-01-18 13:58:00,
2013-01-18 09:03:00,33.1,15.6,30.35,NW,322,11.0,13.0,48,0.00,,---,0.00,VWS V14.00,2013-01-18 14:03:00,
2013-01-18 09:08:00,33.3,15.7,30.35,NW,321,10.0,14.0,48,0.00,,---,0.00,VWS V14.00,2013-01-18 14:08:00,
2013-01-18 09:13:00,33.3,15.3,30.36,North,351,11.0,16.0,47,0.00,,---,0.00,VWS V14.00,2013-01-18 14:13:00,
2013-01-18 09:18:00,33.4,14.9,30.36,NNW,336,13.0,19.0,46,0.00,,---,0.00,VWS V14.00,2013-01-18 14:18:00,
2013-01-18 09:23:00,33.6,16.0,30.37,NW,319,9.0,19.0,48,0.00,,---,0.00,VWS V14.00,2013-01-18 14:23:00,
2013-01-18 09:28:00,33.6,15.0,30.37,NNW,331,13.0,17.0,46,0.00,,---,0.00,VWS V14.00,2013-01-18 14:28:00,
2013-01-18 09:33:00,33.7,15.6,30.37,NNW,345,8.0,22.0,47,0.00,,---,0.00,VWS V14.00,2013-01-18 14:33:00,
2013-01-18 09:38:00,33.7,15.6,30.37,NNE,13,14.0,22.0,47,0.00,,---,0.00,VWS V14.00,2013-01-18 14:38:00,
2013-01-18 09:43:00,33.7,15.1,30.38,North,349,7.0,22.0,46,0.00,,---,0.00,VWS V14.00,2013-01-18 14:43:00,
2013-01-18 09:48:00,34.0,14.9,30.38,North,360,9.0,22.0,45,0.00,,---,0.00,VWS V14.00,2013-01-18 14:48:00,
2013-01-18 09:53:00,34.1,15.0,30.38,NNE,20,13.0,22.0,45,0.00,,---,0.00,VWS V14.00,2013-01-18 14:53:00,
2013-01-18 09:58:00,34.2,15.1,30.38,NNW,335,7.0,9.0,45,0.00,,---,0.00,VWS V14.00,2013-01-18 14:58:00,
2013-01-18 10:03:00,34.4,15.3,30.39,NNW,332,8.0,15.0,45,0.00,,---,0.00,VWS V14.00,2013-01-18 15:03:00,
2013-01-18 10:08:00,34.7,14.5,30.39,NNW,333,9.0,15.0,43,0.00,,---,0.00,VWS V14.00,2013-01-18 15:08:00,
2013-01-18 10:13:00,34.9,16.7,30.39,NW,325,14.0,16.0,47,0.00,,---,0.00,VWS V14.00,2013-01-18 15:13:00,
2013-01-18 10:18:00,35.2,17.0,30.39,WNW,298,14.0,20.0,47,0.00,,---,0.00,VWS V14.00,2013-01-18 15:18:00,
2013-01-18 10:23:00,35.0,17.3,30.40,North,9,8.0,20.0,48,0.00,,---,0.00,VWS V14.00,2013-01-18 15:23:00,
2013-01-18 10:28:00,35.0,17.8,30.40,North,360,6.0,6.0,49,0.00,,---,0.00,VWS V14.00,2013-01-18 15:28:00,
2013-01-18 10:33:00,35.4,17.7,30.40,NNE,13,9.0,14.0,48,0.00,,---,0.00,VWS V14.00,2013-01-18 15:33:00,
2013-01-18 10:38:00,35.5,17.3,30.40,NW,305,9.0,15.0,47,0.00,,---,0.00,VWS V14.00,2013-01-18 15:38:00,
2013-01-18 10:43:00,35.3,17.1,30.40,North,355,9.0,15.0,47,0.00,,---,0.00,VWS V14.00,2013-01-18 15:43:00,
2013-01-18 10:48:00,35.3,16.6,30.41,NNE,12,8.0,15.0,46,0.00,,---,0.00,VWS V14.00,2013-01-18 15:48:00,
2013-01-18 10:53:00,35.9,19.5,30.40,North,9,9.0,15.0,51,0.00,,---,0.00,VWS V14.00,2013-01-18 15:53:00,
2013-01-18 10:58:00,36.2,17.9,30.40,North,355,6.0,10.0,47,0.00,,---,0.00,VWS V14.00,2013-01-18 15:58:00,
2013-01-18 11:03:00,36.1,17.3,30.40,NNW,331,8.0,16.0,46,0.00,,---,0.00,VWS V14.00,2013-01-18 16:03:00,
2013-01-18 11:08:00,36.0,16.7,30.40,NNE,26,7.0,16.0,45,0.00,,---,0.00,VWS V14.00,2013-01-18 16:08:00,
2013-01-18 11:13:00,36.0,17.2,30.40,North,360,10.0,16.0,46,0.00,,---,0.00,VWS V14.00,2013-01-18 16:13:00,
2013-01-18 11:18:00,36.4,17.6,30.40,NNW,340,7.0,16.0,46,0.00,,---,0.00,VWS V14.00,2013-01-18 16:18:00,
2013-01-18 11:23:00,36.2,16.4,30.40,North,360,1.0,16.0,44,0.00,,---,0.00,VWS V14.00,2013-01-18 16:23:00,
2013-01-18 11:28:00,36.5,17.7,30.40,North,5,6.0,9.0,46,0.00,,---,0.00,VWS V14.00,2013-01-18 16:28:00,
2013-01-18 11:33:00,36.7,17.9,30.40,North,11,8.0,14.0,46,0.00,,---,0.00,VWS V14.00,2013-01-18 16:33:00,
2013-01-18 11:38:00,36.8,17.0,30.39,NNW,329,10.0,14.0,44,0.00,,---,0.00,VWS V14.00,2013-01-18 16:38:00,
2013-01-18 11:43:00,37.0,17.6,30.39,NNW,346,9.0,14.0,45,0.00,,---,0.00,VWS V14.00,2013-01-18 16:43:00,
2013-01-18 11:48:00,36.7,16.3,30.39,NNW,340,6.0,16.0,43,0.00,,---,0.00,VWS V14.00,2013-01-18 16:48:00,
2013-01-18 11:53:00,37.0,17.1,30.39,NW,306,16.0,17.0,44,0.00,,---,0.00,VWS V14.00,2013-01-18 16:53:00,
2013-01-18 11:58:00,37.0,16.6,30.39,NNW,332,8.0,8.0,43,0.00,,---,0.00,VWS V14.00,2013-01-18 16:58:00,
2013-01-18 12:03:00,37.0,18.2,30.39,NNE,24,6.0,14.0,46,0.00,,---,0.00,VWS V14.00,2013-01-18 17:03:00,
2013-01-18 12:08:00,37.2,17.8,30.38,NNE,32,3.0,14.0,45,0.00,,---,0.00,VWS V14.00,2013-01-18 17:08:00,
2013-01-18 12:13:00,37.1,17.2,30.38,NNE,29,9.0,14.0,44,0.00,,---,0.00,VWS V14.00,2013-01-18 17:13:00,
2013-01-18 12:18:00,37.0,17.1,30.38,ENE,73,6.0,14.0,44,0.00,,---,0.00,VWS V14.00,2013-01-18 17:18:00,
2013-01-18 12:23:00,37.4,17.0,30.38,NNE,32,5.0,14.0,43,0.00,,---,0.00,VWS V14.00,2013-01-18 17:23:00,
2013-01-18 12:28:00,37.4,15.9,30.38,NE,50,6.0,10.0,41,0.00,,---,0.00,VWS V14.00,2013-01-18 17:28:00,
2013-01-18 12:33:00,37.3,16.9,30.38,North,351,7.0,10.0,43,0.00,,---,0.00,VWS V14.00,2013-01-18 17:33:00,
2013-01-18 12:38:00,37.8,16.2,30.38,North,9,8.0,10.0,41,0.00,,---,0.00,VWS V14.00,2013-01-18 17:38:00,
2013-01-18 12:43:00,37.6,14.9,30.38,NNE,17,0.0,10.0,39,0.00,,---,0.00,VWS V14.00,2013-01-18 17:43:00,
2013-01-18 12:48:00,37.5,17.0,30.38,NW,317,9.0,10.0,43,0.00,,---,0.00,VWS V14.00,2013-01-18 17:48:00,
2013-01-18 12:53:00,37.4,15.3,30.38,NW,308,1.0,10.0,40,0.00,,---,0.00,VWS V14.00,2013-01-18 17:53:00,
2013-01-18 12:58:00,37.4,15.9,30.38,WNW,298,6.0,7.0,41,0.00,,---,0.00,VWS V14.00,2013-01-18 17:58:00,
2013-01-18 13:03:00,37.7,16.7,30.38,West,271,0.0,8.0,42,0.00,,---,0.00,VWS V14.00,2013-01-18 18:03:00,
2013-01-18 13:08:00,38.1,17.0,30.38,NNW,327,7.0,20.0,42,0.00,,---,0.00,VWS V14.00,2013-01-18 18:08:00,
2013-01-18 13:13:00,38.0,15.8,30.38,NW,308,2.0,20.0,40,0.00,,---,0.00,VWS V14.00,2013-01-18 18:13:00,
2013-01-18 13:18:00,37.9,15.2,30.38,North,355,0.0,20.0,39,0.00,,---,0.00,VWS V14.00,2013-01-18 18:18:00,
2013-01-18 13:23:00,37.8,15.7,30.38,North,355,0.0,20.0,40,0.00,,---,0.00,VWS V14.00,2013-01-18 18:23:00,
2013-01-18 13:28:00,38.3,16.7,30.38,North,360,6.0,8.0,41,0.00,,---,0.00,VWS V14.00,2013-01-18 18:28:00,
2013-01-18 13:33:00,38.0,15.8,30.38,NNW,344,6.0,8.0,40,0.00,,---,0.00,VWS V14.00,2013-01-18 18:33:00,
2013-01-18 13:38:00,37.9,15.2,30.38,NNW,346,1.0,8.0,39,0.00,,---,0.00,VWS V14.00,2013-01-18 18:38:00,
2013-01-18 13:43:00,39.2,18.0,30.38,East,89,4.0,8.0,42,0.00,,---,0.00,VWS V14.00,2013-01-18 18:43:00,
2013-01-18 13:48:00,38.6,16.4,30.38,NE,49,3.0,8.0,40,0.00,,---,0.00,VWS V14.00,2013-01-18 18:48:00,
2013-01-18 13:53:00,38.6,15.8,30.38,NE,42,0.0,8.0,39,0.00,,---,0.00,VWS V14.00,2013-01-18 18:53:00,
2013-01-18 13:58:00,38.8,16.0,30.38,NW,320,4.0,6.0,39,0.00,,---,0.00,VWS V14.00,2013-01-18 18:58:00,
2013-01-18 14:03:00,38.5,14.5,30.38,NW,320,0.0,6.0,37,0.00,,---,0.00,VWS V14.00,2013-01-18 19:03:00,
2013-01-18 14:08:00,39.1,16.2,30.38,NNW,338,5.0,7.0,39,0.00,,---,0.00,VWS V14.00,2013-01-18 19:08:00,
2013-01-18 14:13:00,39.4,15.9,30.38,NNW,348,6.0,7.0,38,0.00,,---,0.00,VWS V14.00,2013-01-18 19:13:00,
2013-01-18 14:18:00,39.3,16.4,30.38,NNW,333,6.0,8.0,39,0.00,,---,0.00,VWS V14.00,2013-01-18 19:18:00,
2013-01-18 14:23:00,39.4,15.9,30.39,North,9,0.0,8.0,38,0.00,,---,0.00,VWS V14.00,2013-01-18 19:23:00,
2013-01-18 14:28:00,39.7,15.6,30.38,WNW,299,1.0,2.0,37,0.00,,---,0.00,VWS V14.00,2013-01-18 19:28:00,
2013-01-18 14:33:00,39.7,14.9,30.38,NNW,329,8.0,9.0,36,0.00,,---,0.00,VWS V14.00,2013-01-18 19:33:00,
2013-01-18 14:38:00,39.7,15.6,30.38,NNW,331,0.0,9.0,37,0.00,,---,0.00,VWS V14.00,2013-01-18 19:38:00,
2013-01-18 14:43:00,39.7,15.6,30.39,NNW,331,0.0,9.0,37,0.00,,---,0.00,VWS V14.00,2013-01-18 19:43:00,
2013-01-18 14:48:00,39.9,15.1,30.38,West,265,0.0,9.0,36,0.00,,---,0.00,VWS V14.00,2013-01-18 19:48:00,
2013-01-18 14:53:00,39.9,15.1,30.38,West,265,0.0,9.0,36,0.00,,---,0.00,VWS V14.00,2013-01-18 19:53:00,
2013-01-18 14:58:00,40.2,16.0,30.38,NNE,15,0.0,4.0,37,0.00,,---,0.00,VWS V14.00,2013-01-18 19:58:00,
2013-01-18 15:03:00,40.2,15.4,30.39,NNE,21,0.0,6.0,36,0.00,,---,0.00,VWS V14.00,2013-01-18 20:03:00,
2013-01-18 15:08:00,40.8,17.8,30.39,NNE,12,5.0,6.0,39,0.00,,---,0.00,VWS V14.00,2013-01-18 20:08:00,
2013-01-18 15:13:00,40.7,15.2,30.38,North,5,0.0,6.0,35,0.00,,---,0.00,VWS V14.00,2013-01-18 20:13:00,
2013-01-18 15:18:00,40.7,15.2,30.38,North,360,2.0,6.0,35,0.00,,---,0.00,VWS V14.00,2013-01-18 20:18:00,
2013-01-18 15:23:00,40.8,15.9,30.38,North,360,0.0,6.0,36,0.00,,---,0.00,VWS V14.00,2013-01-18 20:23:00,
2013-01-18 15:28:00,41.0,17.4,30.38,NE,46,0.0,1.0,38,0.00,,---,0.00,VWS V14.00,2013-01-18 20:28:00,
2013-01-18 15:33:00,41.1,14.9,30.38,NNE,24,2.0,5.0,34,0.00,,---,0.00,VWS V14.00,2013-01-18 20:33:00,
2013-01-18 15:38:00,40.9,16.0,30.38,NE,55,0.0,6.0,36,0.00,,---,0.00,VWS V14.00,2013-01-18 20:38:00,
2013-01-18 15:43:00,40.6,17.0,30.38,ENE,60,1.0,6.0,38,0.00,,---,0.00,VWS V14.00,2013-01-18 20:43:00,
2013-01-18 15:48:00,40.7,15.8,30.39,ENE,57,0.0,6.0,36,0.00,,---,0.00,VWS V14.00,2013-01-18 20:48:00,
2013-01-18 15:53:00,40.6,15.8,30.39,ENE,57,0.0,6.0,36,0.00,,---,0.00,VWS V14.00,2013-01-18 20:53:00,
2013-01-18 15:58:00,40.5,15.0,30.39,East,93,2.0,4.0,35,0.00,,---,0.00,VWS V14.00,2013-01-18 20:58:00,
2013-01-18 16:03:00,40.5,15.0,30.39,East,93,0.0,4.0,35,0.00,,---,0.00,VWS V14.00,2013-01-18 21:03:00,
2013-01-18 16:08:00,40.7,15.2,30.39,SSE,153,1.0,5.0,35,0.00,,---,0.00,VWS V14.00,2013-01-18 21:08:00,
2013-01-18 16:13:00,40.7,15.2,30.39,SSE,150,4.0,5.0,35,0.00,,---,0.00,VWS V14.00,2013-01-18 21:13:00,
2013-01-18 16:18:00,40.5,15.0,30.39,SE,135,0.0,5.0,35,0.00,,---,0.00,VWS V14.00,2013-01-18 21:18:00,
2013-01-18 16:23:00,40.3,14.8,30.38,SE,134,0.0,5.0,35,0.00,,---,0.00,VWS V14.00,2013-01-18 21:23:00,
2013-01-18 16:28:00,40.5,15.7,30.39,SE,134,0.0,4.0,36,0.00,,---,0.00,VWS V14.00,2013-01-18 21:28:00,
2013-01-18 16:33:00,40.5,15.7,30.39,SSE,163,4.0,7.0,36,0.00,,---,0.00,VWS V14.00,2013-01-18 21:33:00,
2013-01-18 16:38:00,40.5,15.7,30.39,SSE,167,2.0,7.0,36,0.00,,---,0.00,VWS V14.00,2013-01-18 21:38:00,
2013-01-18 16:43:00,40.3,14.8,30.39,South,169,0.0,7.0,35,0.00,,---,0.00,VWS V14.00,2013-01-18 21:43:00,
2013-01-18 16:48:00,40.3,15.5,30.39,South,176,4.0,7.0,36,0.00,,---,0.00,VWS V14.00,2013-01-18 21:48:00,
2013-01-18 16:53:00,40.2,15.4,30.39,South,180,0.0,7.0,36,0.00,,---,0.00,VWS V14.00,2013-01-18 21:53:00,
2013-01-18 16:58:00,39.7,15.6,30.39,SSW,208,3.0,6.0,37,0.00,,---,0.00,VWS V14.00,2013-01-18 21:58:00,
2013-01-18 17:03:00,39.2,15.1,30.39,SSW,198,3.0,6.0,37,0.00,,---,0.00,VWS V14.00,2013-01-18 22:03:00,
2013-01-18 17:08:00,38.9,15.5,30.39,SSW,198,0.0,6.0,38,0.00,,---,0.00,VWS V14.00,2013-01-18 22:08:00,
2013-01-18 17:13:00,38.7,15.9,30.39,SSW,198,0.0,6.0,39,0.00,,---,0.00,VWS V14.00,2013-01-18 22:13:00,
2013-01-18 17:18:00,38.1,16.5,30.39,SSW,198,0.0,6.0,41,0.00,,---,0.00,VWS V14.00,2013-01-18 22:18:00,
2013-01-18 17:23:00,37.6,16.6,30.39,SSW,198,0.0,6.0,42,0.00,,---,0.00,VWS V14.00,2013-01-18 22:23:00,
2013-01-18 17:28:00,37.0,17.1,30.39,SSW,198,0.0,0.0,44,0.00,,---,0.00,VWS V14.00,2013-01-18 22:28:00,
2013-01-18 17:33:00,36.9,17.0,30.39,SSW,198,0.0,0.0,44,0.00,,---,0.00,VWS V14.00,2013-01-18 22:33:00,
2013-01-18 17:38:00,36.5,17.7,30.39,SSW,198,0.0,0.0,46,0.00,,---,0.00,VWS V14.00,2013-01-18 22:38:00,
2013-01-18 17:43:00,36.2,18.4,30.39,SSW,198,0.0,0.0,48,0.00,,---,0.00,VWS V14.00,2013-01-18 22:43:00,
2013-01-18 17:48:00,35.7,19.8,30.39,SSW,198,0.0,0.0,52,0.00,,---,0.00,VWS V14.00,2013-01-18 22:48:00,
2013-01-18 17:53:00,34.6,20.5,30.39,SSW,198,0.0,0.0,56,0.00,,---,0.00,VWS V14.00,2013-01-18 22:53:00,
2013-01-18 17:58:00,33.9,18.1,30.39,SSW,198,0.0,0.0,52,0.00,,---,0.00,VWS V14.00,2013-01-18 22:58:00,
2013-01-18 18:03:00,33.6,18.3,30.39,SSW,198,0.0,0.0,53,0.00,,---,0.00,VWS V14.00,2013-01-18 23:03:00,
2013-01-18 18:08:00,32.0,19.3,30.39,SSW,198,0.0,0.0,59,0.00,,---,0.00,VWS V14.00,2013-01-18 23:08:00,
2013-01-18 18:13:00,30.8,19.7,30.39,SSW,198,0.0,0.0,63,0.00,,---,0.00,VWS V14.00,2013-01-18 23:13:00,
2013-01-18 18:18:00,30.8,18.6,30.40,SSW,198,0.0,0.0,60,0.00,,---,0.00,VWS V14.00,2013-01-18 23:18:00,
2013-01-18 18:23:00,32.1,18.6,30.40,SSW,198,2.0,3.0,57,0.00,,---,0.00,VWS V14.00,2013-01-18 23:23:00,
2013-01-18 18:28:00,32.7,17.9,30.40,South,173,1.0,4.0,54,0.00,,---,0.00,VWS V14.00,2013-01-18 23:28:00,
2013-01-18 18:33:00,32.6,19.1,30.40,South,169,1.0,4.0,57,0.00,,---,0.00,VWS V14.00,2013-01-18 23:33:00,
2013-01-18 18:38:00,32.6,18.7,30.40,South,169,0.0,4.0,56,0.00,,---,0.00,VWS V14.00,2013-01-18 23:38:00,
2013-01-18 18:43:00,32.5,19.0,30.40,South,169,0.0,4.0,57,0.00,,---,0.00,VWS V14.00,2013-01-18 23:43:00,
2013-01-18 18:48:00,32.3,20.4,30.40,South,169,2.0,4.0,61,0.00,,---,0.00,VWS V14.00,2013-01-18 23:48:00,
2013-01-18 18:53:00,31.9,21.9,30.40,SW,217,3.0,5.0,66,0.00,,---,0.00,VWS V14.00,2013-01-18 23:53:00,
2013-01-18 18:58:00,31.6,21.9,30.40,SSW,196,3.0,4.0,67,0.00,,---,0.00,VWS V14.00,2013-01-18 23:58:00,
2013-01-18 19:03:00,32.2,20.7,30.40,South,182,4.0,5.0,62,0.00,,---,0.00,VWS V14.00,2013-01-19 00:03:00,
2013-01-18 19:08:00,32.4,20.5,30.40,SW,215,3.0,5.0,61,0.00,,---,0.00,VWS V14.00,2013-01-19 00:08:00,
2013-01-18 19:13:00,32.0,20.9,30.40,SSW,198,4.0,5.0,63,0.00,,---,0.00,VWS V14.00,2013-01-19 00:13:00,
2013-01-18 19:18:00,31.8,20.7,30.40,South,170,4.0,7.0,63,0.00,,---,0.00,VWS V14.00,2013-01-19 00:18:00,
2013-01-18 19:23:00,32.1,20.9,30.40,South,175,0.0,7.0,63,0.00,,---,0.00,VWS V14.00,2013-01-19 00:23:00,
2013-01-18 19:28:00,31.9,21.1,30.40,South,175,0.0,1.0,64,0.00,,---,0.00,VWS V14.00,2013-01-19 00:28:00,
2013-01-18 19:33:00,31.6,21.2,30.40,South,169,6.0,7.0,65,0.00,,---,0.00,VWS V14.00,2013-01-19 00:33:00,
2013-01-18 19:38:00,32.3,21.5,30.40,South,175,6.0,8.0,64,0.00,,---,0.00,VWS V14.00,2013-01-19 00:38:00,
2013-01-18 19:43:00,32.7,21.5,30.40,SSE,165,2.0,8.0,63,0.00,,---,0.00,VWS V14.00,2013-01-19 00:43:00,
2013-01-18 19:48:00,32.6,21.8,30.40,South,178,0.0,8.0,64,0.00,,---,0.00,VWS V14.00,2013-01-19 00:48:00,
2013-01-18 19:53:00,32.0,21.6,30.40,SSE,160,0.0,8.0,65,0.00,,---,0.00,VWS V14.00,2013-01-19 00:53:00,
2013-01-18 19:58:00,31.9,21.5,30.40,SSE,160,0.0,0.0,65,0.00,,---,0.00,VWS V14.00,2013-01-19 00:58:00,
2013-01-18 20:03:00,31.3,21.3,30.40,SSE,160,0.0,1.0,66,0.00,,---,0.00,VWS V14.00,2013-01-19 01:03:00,
2013-01-18 20:08:00,30.7,21.1,30.40,SSE,160,0.0,2.0,67,0.00,,---,0.00,VWS V14.00,2013-01-19 01:08:00,
2013-01-18 20:13:00,30.3,21.4,30.40,SSE,160,1.0,4.0,69,0.00,,---,0.00,VWS V14.00,2013-01-19 01:13:00,
2013-01-18 20:18:00,30.9,21.6,30.40,South,186,3.0,6.0,68,0.00,,---,0.00,VWS V14.00,2013-01-19 01:18:00,
2013-01-18 20:23:00,30.7,22.1,30.40,South,173,7.0,7.0,70,0.00,,---,0.00,VWS V14.00,2013-01-19 01:23:00,
2013-01-18 20:28:00,31.5,22.2,30.40,SSE,157,5.0,6.0,68,0.00,,---,0.00,VWS V14.00,2013-01-19 01:28:00,
2013-01-18 20:33:00,32.0,21.9,30.40,South,189,4.0,8.0,66,0.00,,---,0.00,VWS V14.00,2013-01-19 01:33:00,
2013-01-18 20:38:00,32.3,22.2,30.40,SSE,148,6.0,8.0,66,0.00,,---,0.00,VWS V14.00,2013-01-19 01:38:00,
2013-01-18 20:43:00,32.7,22.2,30.40,South,186,0.0,8.0,65,0.00,,---,0.00,VWS V14.00,2013-01-19 01:43:00,
2013-01-18 20:48:00,32.8,22.0,30.40,SSE,163,4.0,8.0,64,0.00,,---,0.00,VWS V14.00,2013-01-19 01:48:00,
2013-01-18 20:53:00,33.0,21.8,30.40,SSE,167,4.0,8.0,63,0.00,,---,0.00,VWS V14.00,2013-01-19 01:53:00,
2013-01-18 20:58:00,33.2,22.0,30.40,SSE,159,6.0,7.0,63,0.00,,---,0.00,VWS V14.00,2013-01-19 01:58:00,
2013-01-18 21:03:00,33.5,21.9,30.40,SSE,167,5.0,9.0,62,0.00,,---,0.00,VWS V14.00,2013-01-19 02:03:00,
2013-01-18 21:08:00,33.5,21.9,30.40,South,178,2.0,9.0,62,0.00,,---,0.00,VWS V14.00,2013-01-19 02:08:00,
2013-01-18 21:13:00,33.1,21.9,30.40,South,182,5.0,9.0,63,0.00,,---,0.00,VWS V14.00,2013-01-19 02:13:00,
2013-01-18 21:18:00,33.0,21.8,30.40,South,184,1.0,9.0,63,0.00,,---,0.00,VWS V14.00,2013-01-19 02:18:00,
2013-01-18 21:23:00,32.8,22.0,30.40,South,184,2.0,9.0,64,0.00,,---,0.00,VWS V14.00,2013-01-19 02:23:00,
2013-01-18 21:28:00,32.7,21.9,30.40,South,169,5.0,5.0,64,0.00,,---,0.00,VWS V14.00,2013-01-19 02:28:00,
2013-01-18 21:33:00,32.8,22.0,30.40,SSE,155,4.0,7.0,64,0.00,,---,0.00,VWS V14.00,2013-01-19 02:33:00,
2013-01-18 21:38:00,33.0,22.2,30.40,SSE,165,2.0,7.0,64,0.00,,---,0.00,VWS V14.00,2013-01-19 02:38:00,
2013-01-18 21:43:00,33.0,22.2,30.39,SSE,158,6.0,8.0,64,0.00,,---,0.00,VWS V14.00,2013-01-19 02:43:00,
2013-01-18 21:48:00,33.0,22.2,30.39,South,176,4.0,8.0,64,0.00,,---,0.00,VWS V14.00,2013-01-19 02:48:00,
2013-01-18 21:53:00,33.0,22.2,30.39,South,172,4.0,8.0,64,0.00,,---,0.00,VWS V14.00,2013-01-19 02:53:00,
2013-01-18 21:58:00,33.0,22.2,30.39,SSE,165,5.0,6.0,64,0.00,,---,0.00,VWS V14.00,2013-01-19 02:58:00,
2013-01-18 22:03:00,33.0,22.5,30.39,SSE,165,2.0,6.0,65,0.00,,---,0.00,VWS V14.00,2013-01-19 03:03:00,
2013-01-18 22:08:00,33.0,22.5,30.39,South,174,1.0,6.0,65,0.00,,---,0.00,VWS V14.00,2013-01-19 03:08:00,
2013-01-18 22:13:00,32.6,22.5,30.38,South,171,0.0,6.0,66,0.00,,---,0.00,VWS V14.00,2013-01-19 03:13:00,
2013-01-18 22:18:00,32.2,22.5,30.38,SSE,161,5.0,8.0,67,0.00,,---,0.00,VWS V14.00,2013-01-19 03:18:00,
2013-01-18 22:23:00,32.4,22.7,30.38,SSE,161,6.0,9.0,67,0.00,,---,0.00,VWS V14.00,2013-01-19 03:23:00,
2013-01-18 22:28:00,32.7,23.0,30.38,SSW,192,6.0,6.0,67,0.00,,---,0.00,VWS V14.00,2013-01-19 03:28:00,
2013-01-18 22:33:00,33.0,22.9,30.38,South,179,6.0,10.0,66,0.00,,---,0.00,VWS V14.00,2013-01-19 03:33:00,
2013-01-18 22:38:00,33.4,22.9,30.38,SE,142,10.0,11.0,65,0.00,,---,0.00,VWS V14.00,2013-01-19 03:38:00,
2013-01-18 22:43:00,33.4,23.3,30.38,SE,143,5.0,11.0,66,0.00,,---,0.00,VWS V14.00,2013-01-19 03:43:00,
2013-01-18 22:48:00,33.4,22.9,30.37,South,178,7.0,15.0,65,0.00,,---,0.00,VWS V14.00,2013-01-19 03:48:00,
2013-01-18 22:53:00,33.7,22.8,30.37,SSE,166,5.0,15.0,64,0.00,,---,0.00,VWS V14.00,2013-01-19 03:53:00,
2013-01-18 22:58:00,34.0,23.1,30.37,SSE,157,5.0,8.0,64,0.00,,---,0.00,VWS V14.00,2013-01-19 03:58:00,
2013-01-18 23:03:00,34.1,23.2,30.37,SSE,153,8.0,18.0,64,0.00,,---,0.00,VWS V14.00,2013-01-19 04:03:00,
2013-01-18 23:08:00,34.1,22.8,30.37,SSE,161,6.0,18.0,63,0.00,,---,0.00,VWS V14.00,2013-01-19 04:08:00,
2013-01-18 23:13:00,34.1,22.8,30.36,SSE,147,12.0,18.0,63,0.00,,---,0.00,VWS V14.00,2013-01-19 04:13:00,
2013-01-18 23:18:00,34.3,22.6,30.36,SE,144,6.0,18.0,62,0.00,,---,0.00,VWS V14.00,2013-01-19 04:18:00,
2013-01-18 23:23:00,34.4,22.7,30.36,SE,136,7.0,18.0,62,0.00,,---,0.00,VWS V14.00,2013-01-19 04:23:00,
2013-01-18 23:28:00,34.3,22.6,30.36,SSE,157,16.0,16.0,62,0.00,,---,0.00,VWS V14.00,2013-01-19 04:28:00,
2013-01-18 23:33:00,34.3,22.6,30.36,SW,228,13.0,17.0,62,0.00,,---,0.00,VWS V14.00,2013-01-19 04:33:00,
2013-01-18 23:38:00,34.3,22.6,30.35,SSE,163,9.0,17.0,62,0.00,,---,0.00,VWS V14.00,2013-01-19 04:38:00,
2013-01-18 23:43:00,34.3,22.6,30.35,SSE,167,9.0,17.0,62,0.00,,---,0.00,VWS V14.00,2013-01-19 04:43:00,
2013-01-18 23:48:00,34.2,22.5,30.35,SSE,151,6.0,17.0,62,0.00,,---,0.00,VWS V14.00,2013-01-19 04:48:00,
2013-01-18 23:53:00,34.1,22.5,30.35,SSE,157,9.0,17.0,62,0.00,,---,0.00,VWS V14.00,2013-01-19 04:53:00,
2013-01-18 23:58:00,34.1,22.1,30.35,SSE,155,7.0,13.0,61,0.00,,---,0.00,VWS V14.00,2013-01-19 04:58:00,